Faro current weather conditions

sailwx.info

Wind from 030 at 8 knots

Air temperature 19.0° C
Dewpoint 10.0° C

Last reported at 2014-Oct-25 01:30 UTC.
Time now 2014-Oct-25 02:55 UTC

Location: N 37°01' W 007°58'.
View on Google Maps.

See reports from other nearby stations

  
Tides and Currents Weather Stations Pressure Air Temp Water Temp Dewpoint Dewpoint Depression Visibility Wind Speed Wind Dir Waves Ship Positions
date/time (UTC)wind fromknots sea level pressurealtimeterstation pressurevisibilityair tempwater tempwave heightnotes
2014-Oct-25 01:30 030 8 19.0
2014-Oct-25 01:00 030 7 19.0
2014-Oct-25 00:30 040 7 18.0
2014-Oct-25 00:00 030 6 19.0
2014-Oct-24 23:30 030 5 19.0
2014-Oct-24 23:00 030 5 18.0
2014-Oct-24 22:30 040 4 19.0
2014-Oct-24 22:00 050 4 20.0
2014-Oct-24 21:51 050 4 20.0
2014-Oct-24 21:30 020 4 18.0
2014-Oct-24 21:00 030 4 20.0
2014-Oct-24 20:30 030 5 21.0
2014-Oct-24 20:00 020 4 22.0
2014-Oct-24 19:30 030 5 23.0
2014-Oct-24 19:00 060 4 23.0
2014-Oct-24 18:30 070 4 23.0
2014-Oct-24 18:00 100 3 23.0
2014-Oct-24 17:30 120 5 24.0
2014-Oct-24 17:00 100 5 25.0
2014-Oct-24 16:30 100 6 26.0
2014-Oct-24 16:00 110 7 26.0
2014-Oct-24 15:30 100 7 26.0
2014-Oct-24 15:00 100 9 26.0
2014-Oct-24 14:30 110 9 26.0
2014-Oct-24 14:00 110 11 26.0
2014-Oct-24 13:30 110 12 26.0
2014-Oct-24 13:00 110 13 27.0
2014-Oct-24 12:30 100 12 28.0
2014-Oct-24 12:00 100 13 28.0
2014-Oct-24 11:30 090 11 27.0
2014-Oct-24 11:00 080 12 gusting 24 26.0
2014-Oct-24 10:30 090 12 26.0
2014-Oct-24 10:00 090 11 26.0
2014-Oct-24 09:30 080 12 gusting 22 25.0
2014-Oct-24 09:00 070 12 25.0
2014-Oct-24 08:30 070 11 24.0
2014-Oct-24 08:00 070 11 23.0
2014-Oct-24 07:30 070 11 23.0
2014-Oct-24 07:00 070 12 23.0
2014-Oct-24 06:30 070 11 22.0
2014-Oct-24 06:00 050 9 22.0
2014-Oct-24 05:30 050 8 22.0
2014-Oct-24 05:00 050 5 20.0
2014-Oct-24 04:48 18.0
2014-Oct-24 04:30 16.0
2014-Oct-24 04:00 19.0
2014-Oct-24 03:45 19.0
2014-Oct-24 03:30 160 3 17.0
2014-Oct-24 03:00 290 1 18.0
2014-Oct-24 02:30 18.0
2014-Oct-24 02:00 040 3 19.0
2014-Oct-24 01:30 020 6 22.0
2014-Oct-24 01:00 030 7 22.0
2014-Oct-24 00:41 020 6 22.0
2014-Oct-24 00:30 010 5 20.0
2014-Oct-24 00:00 030 6 22.0
2014-Oct-23 23:30 020 7 22.0
2014-Oct-23 23:00 020 6 23.0
2014-Oct-23 22:30 030 7 22.0
2014-Oct-23 22:00 020 6 23.0
2014-Oct-23 21:45 030 6 22.0
2014-Oct-23 21:30 050 6 21.0
2014-Oct-23 21:00 340 3 21.0
2014-Oct-23 20:30 010 5 23.0
2014-Oct-23 20:13 350 6 24.0
2014-Oct-23 20:00 340 5 22.0
2014-Oct-23 19:30 030 6 24.0
2014-Oct-23 19:00 020 6 25.0
2014-Oct-23 18:32 030 4 25.0
2014-Oct-23 18:30 23.0
2014-Oct-23 18:00 080 3 24.0
2014-Oct-23 17:30 100 5 25.0
2014-Oct-23 17:00 110 6 26.0
2014-Oct-23 16:30 110 7 26.0
2014-Oct-23 16:00 110 7 26.0
2014-Oct-23 15:30 110 10 27.0
2014-Oct-23 15:00 100 10 27.0
2014-Oct-23 14:30 110 12 27.0
2014-Oct-23 14:00 100 12 28.0
2014-Oct-23 13:30 110 13 28.0
2014-Oct-23 13:00 100 13 28.0
2014-Oct-23 12:30 090 13 28.0
2014-Oct-23 12:00 090 14 gusting 27 28.0
2014-Oct-23 11:30 090 14 27.0
2014-Oct-23 11:00 080 13 27.0
2014-Oct-23 10:30 080 12 26.0
2014-Oct-23 10:00 080 12 26.0
2014-Oct-23 09:30 080 12 25.0
2014-Oct-23 09:00 080 10 24.0
2014-Oct-23 08:30 080 8 24.0
2014-Oct-23 08:00 080 9 24.0
2014-Oct-23 07:30 070 9 23.0
2014-Oct-23 07:00 070 11 23.0
2014-Oct-23 06:30 070 13 24.0
2014-Oct-23 06:00 060 14 24.0
2014-Oct-23 05:30 050 12 23.0
2014-Oct-23 05:00 050 9 24.0
2014-Oct-23 04:30 040 9 24.0
2014-Oct-23 04:00 050 11 23.0
2014-Oct-23 03:30 060 11 23.0
2014-Oct-23 03:00 050 8 24.0
2014-Oct-23 02:30 040 7 24.0
2014-Oct-23 02:00 030 6 24.0